Time,TemperatureF,DewpointF,PressureIn,WindDirection,WindDirectionDegrees,WindSpeedMPH,WindSpeedGustMPH,Humidity,HourlyPrecipIn,Conditions,Clouds,dailyrainin,SoftwareType,DateUTC
2013-09-06 00:03:00,55.5,13.9,29.90,SE,126,0.0,1.0,19,0.00,,,0.00,WeatherCatV1.21B27,2013-09-06 07:03:00,
2013-09-06 00:08:00,55.4,12.6,29.90,WNW,300,2.0,2.0,18,0.00,,,0.00,WeatherCatV1.21B27,2013-09-06 07:08:00,
2013-09-06 00:13:00,55.0,-0.5,29.90,SSE,150,0.0,0.0,10,0.00,,,0.00,WeatherCatV1.21B27,2013-09-06 07:13:00,
2013-09-06 00:18:00,55.1,-31.8,29.90,SSE,167,0.0,2.0,2,0.00,,,0.00,WeatherCatV1.21B27,2013-09-06 07:18:00,
2013-09-06 00:23:00,55.1,-14.6,29.90,ESE,111,1.0,1.0,5,0.00,,,0.00,WeatherCatV1.21B27,2013-09-06 07:23:00,
2013-09-06 00:28:00,55.2,-14.5,29.90,West,260,3.0,5.0,5,0.00,,,0.00,WeatherCatV1.21B27,2013-09-06 07:28:00,
2013-09-06 00:33:00,55.4,-4.9,29.90,NNE,24,2.0,4.0,8,0.00,,,0.00,WeatherCatV1.21B27,2013-09-06 07:33:00,
2013-09-06 00:38:00,55.6,11.5,29.90,South,179,0.0,0.0,17,0.00,,,0.00,WeatherCatV1.21B27,2013-09-06 07:38:00,
2013-09-06 00:43:00,55.5,18.3,29.90,SE,126,3.0,3.0,23,0.00,,,0.00,WeatherCatV1.21B27,2013-09-06 07:43:00,
2013-09-06 00:48:00,55.4,20.2,29.90,SE,136,0.0,0.0,25,0.00,,,0.00,WeatherCatV1.21B27,2013-09-06 07:48:00,
2013-09-06 00:53:00,55.5,18.3,29.90,NNE,28,3.0,5.0,23,0.00,,,0.00,WeatherCatV1.21B27,2013-09-06 07:53:00,
2013-09-06 00:58:00,55.3,26.7,29.90,South,175,0.0,0.0,33,0.00,,,0.00,WeatherCatV1.21B27,2013-09-06 07:58:00,
2013-09-06 01:03:00,55.2,22.7,29.90,SSW,211,1.0,1.0,28,0.00,,,0.00,WeatherCatV1.21B27,2013-09-06 08:03:00,
2013-09-06 01:08:00,55.1,19.9,29.90,SSE,154,1.0,1.0,25,0.00,,,0.00,WeatherCatV1.21B27,2013-09-06 08:08:00,
2013-09-06 01:13:00,55.3,21.9,29.90,South,189,0.0,1.0,27,0.00,,,0.00,WeatherCatV1.21B27,2013-09-06 08:13:00,
2013-09-06 01:18:00,55.2,24.3,29.90,SSE,152,0.0,4.0,30,0.00,,,0.00,WeatherCatV1.21B27,2013-09-06 08:18:00,
2013-09-06 01:23:00,55.1,28.6,29.90,SSE,150,0.0,0.0,36,0.00,,,0.00,WeatherCatV1.21B27,2013-09-06 08:23:00,
2013-09-06 01:28:00,54.8,27.7,29.90,SW,228,2.0,3.0,35,0.00,,,0.00,WeatherCatV1.21B27,2013-09-06 08:28:00,
2013-09-06 01:33:00,54.7,29.0,29.90,SSE,152,0.0,0.0,37,0.00,,,0.00,WeatherCatV1.21B27,2013-09-06 08:33:00,
2013-09-06 01:38:00,54.9,19.8,29.90,East,84,5.0,5.0,25,0.00,,,0.00,WeatherCatV1.21B27,2013-09-06 08:38:00,
2013-09-06 01:43:00,54.7,23.1,29.89,South,189,1.0,2.0,29,0.00,,,0.00,WeatherCatV1.21B27,2013-09-06 08:43:00,
2013-09-06 01:48:00,54.6,23.8,29.89,SSE,159,0.0,0.0,30,0.00,,,0.00,WeatherCatV1.21B27,2013-09-06 08:48:00,
2013-09-06 01:53:00,54.3,25.1,29.89,SSE,152,0.0,0.0,32,0.00,,,0.00,WeatherCatV1.21B27,2013-09-06 08:53:00,
2013-09-06 01:58:00,54.1,20.0,29.89,SE,141,0.0,0.0,26,0.00,,,0.00,WeatherCatV1.21B27,2013-09-06 08:58:00,
2013-09-06 02:03:00,53.8,14.8,29.90,ESE,121,0.0,0.0,21,0.00,,,0.00,WeatherCatV1.21B27,2013-09-06 09:03:00,
2013-09-06 02:08:00,53.7,0.5,29.90,ESE,121,0.0,0.0,11,0.00,,,0.00,WeatherCatV1.21B27,2013-09-06 09:08:00,
2013-09-06 02:13:00,53.9,-99.9,29.89,SE,138,0.0,0.0,1,0.00,,,0.00,WeatherCatV1.21B27,2013-09-06 09:13:00,
2013-09-06 02:18:00,54.0,4.3,29.89,SE,144,0.0,0.0,13,0.00,,,0.00,WeatherCatV1.21B27,2013-09-06 09:18:00,
2013-09-06 02:23:00,53.8,5.8,29.89,SE,144,0.0,0.0,14,0.00,,,0.00,WeatherCatV1.21B27,2013-09-06 09:23:00,
2013-09-06 02:28:00,53.7,-3.8,29.89,SSE,148,0.0,0.0,9,0.00,,,0.00,WeatherCatV1.21B27,2013-09-06 09:28:00,
2013-09-06 02:33:00,53.6,-20.0,29.89,SE,146,0.0,0.0,4,0.00,,,0.00,WeatherCatV1.21B27,2013-09-06 09:33:00,
2013-09-06 02:38:00,53.8,-99.9,29.89,SE,136,0.0,0.0,1,0.00,,,0.00,WeatherCatV1.21B27,2013-09-06 09:38:00,
2013-09-06 02:43:00,53.8,-8.8,29.89,SE,146,0.0,0.0,7,0.00,,,0.00,WeatherCatV1.21B27,2013-09-06 09:43:00,
2013-09-06 02:48:00,53.6,-12.1,29.89,SE,144,0.0,0.0,6,0.00,,,0.00,WeatherCatV1.21B27,2013-09-06 09:48:00,
2013-09-06 02:53:00,53.9,-99.9,29.89,SE,137,1.0,3.0,1,0.00,,,0.00,WeatherCatV1.21B27,2013-09-06 09:53:00,
2013-09-06 02:58:00,54.2,11.6,29.89,SSE,160,0.0,0.0,18,0.00,,,0.00,WeatherCatV1.21B27,2013-09-06 09:58:00,
2013-09-06 03:03:00,54.2,12.9,29.89,SSE,160,0.0,0.0,19,0.00,,,0.00,WeatherCatV1.21B27,2013-09-06 10:03:00,
2013-09-06 03:08:00,54.2,16.2,29.89,SSE,159,0.0,0.0,22,0.00,,,0.00,WeatherCatV1.21B27,2013-09-06 10:08:00,
2013-09-06 03:13:00,54.3,12.9,29.88,SSE,159,0.0,0.0,19,0.00,,,0.00,WeatherCatV1.21B27,2013-09-06 10:13:00,
2013-09-06 03:18:00,53.9,20.7,29.88,SE,140,0.0,1.0,27,0.00,,,0.00,WeatherCatV1.21B27,2013-09-06 10:18:00,
2013-09-06 03:23:00,53.7,4.1,29.88,South,173,0.0,0.0,13,0.00,,,0.00,WeatherCatV1.21B27,2013-09-06 10:23:00,
2013-09-06 03:28:00,53.7,-19.9,29.88,West,280,1.0,1.0,4,0.00,,,0.00,WeatherCatV1.21B27,2013-09-06 10:28:00,
2013-09-06 03:33:00,53.7,-32.7,29.89,South,186,0.0,0.0,2,0.00,,,0.00,WeatherCatV1.21B27,2013-09-06 10:33:00,
2013-09-06 03:38:00,53.7,-6.2,29.88,SSE,159,0.0,0.0,8,0.00,,,0.00,WeatherCatV1.21B27,2013-09-06 10:38:00,
2013-09-06 03:43:00,53.4,-12.2,29.88,SSE,159,0.0,0.0,6,0.00,,,0.00,WeatherCatV1.21B27,2013-09-06 10:43:00,
2013-09-06 03:48:00,53.3,-99.9,29.88,SSE,159,0.0,0.0,1,0.00,,,0.00,WeatherCatV1.21B27,2013-09-06 10:48:00,
2013-09-06 03:53:00,53.2,-99.9,29.88,SSE,159,0.0,0.0,1,0.00,,,0.00,WeatherCatV1.21B27,2013-09-06 10:53:00,
2013-09-06 03:58:00,53.1,-99.9,29.88,SSE,160,0.0,0.0,1,0.00,,,0.00,WeatherCatV1.21B27,2013-09-06 10:58:00,
2013-09-06 04:03:00,53.0,-99.9,29.89,SSE,154,0.0,0.0,1,0.00,,,0.00,WeatherCatV1.21B27,2013-09-06 11:03:00,
2013-09-06 04:08:00,53.1,-99.9,29.88,South,174,0.0,0.0,1,0.00,,,0.00,WeatherCatV1.21B27,2013-09-06 11:08:00,
2013-09-06 04:13:00,53.4,-99.9,29.88,South,169,0.0,0.0,1,0.00,,,0.00,WeatherCatV1.21B27,2013-09-06 11:13:00,
2013-09-06 04:18:00,53.5,-99.9,29.88,South,169,0.0,0.0,1,0.00,,,0.00,WeatherCatV1.21B27,2013-09-06 11:18:00,
2013-09-06 04:23:00,53.5,-99.9,29.88,South,169,0.0,0.0,1,0.00,,,0.00,WeatherCatV1.21B27,2013-09-06 11:23:00,
2013-09-06 04:28:00,53.4,-99.9,29.88,South,169,0.0,0.0,1,0.00,,,0.00,WeatherCatV1.21B27,2013-09-06 11:28:00,
2013-09-06 04:33:00,53.2,-99.9,29.88,South,169,0.0,0.0,1,0.00,,,0.00,WeatherCatV1.21B27,2013-09-06 11:33:00,
2013-09-06 04:38:00,53.1,-99.9,29.88,South,169,0.0,0.0,1,0.00,,,0.00,WeatherCatV1.21B27,2013-09-06 11:38:00,
2013-09-06 04:43:00,53.0,-99.9,29.88,South,169,0.0,0.0,1,0.00,,,0.00,WeatherCatV1.21B27,2013-09-06 11:43:00,
2013-09-06 04:48:00,53.0,-99.9,29.88,SSE,165,0.0,0.0,1,0.00,,,0.00,WeatherCatV1.21B27,2013-09-06 11:48:00,
2013-09-06 04:53:00,53.1,-99.9,29.88,SSE,165,0.0,0.0,1,0.00,,,0.00,WeatherCatV1.21B27,2013-09-06 11:53:00,
2013-09-06 04:58:00,53.1,-99.9,29.88,SSE,165,0.0,0.0,1,0.00,,,0.00,WeatherCatV1.21B27,2013-09-06 11:58:00,
2013-09-06 05:03:00,53.1,-99.9,29.88,SSE,165,0.0,0.0,1,0.00,,,0.00,WeatherCatV1.21B27,2013-09-06 12:03:00,
2013-09-06 05:08:00,53.0,-99.9,29.88,SSE,165,0.0,0.0,1,0.00,,,0.00,WeatherCatV1.21B27,2013-09-06 12:08:00,
2013-09-06 05:13:00,53.3,-99.9,29.88,SSE,165,0.0,0.0,1,0.00,,,0.00,WeatherCatV1.21B27,2013-09-06 12:13:00,
2013-09-06 05:18:00,53.4,-99.9,29.88,SSE,165,0.0,0.0,1,0.00,,,0.00,WeatherCatV1.21B27,2013-09-06 12:18:00,
2013-09-06 05:23:00,53.4,-99.9,29.88,SSE,165,0.0,0.0,1,0.00,,,0.00,WeatherCatV1.21B27,2013-09-06 12:23:00,
2013-09-06 05:28:00,53.7,-99.9,29.88,SSE,165,0.0,0.0,1,0.00,,,0.00,WeatherCatV1.21B27,2013-09-06 12:28:00,
2013-09-06 05:33:00,54.4,2.9,29.88,SSE,165,0.0,0.0,12,0.00,,,0.00,WeatherCatV1.21B27,2013-09-06 12:33:00,
2013-09-06 05:38:00,54.7,27.6,29.88,SSE,153,0.0,0.0,35,0.00,,,0.00,WeatherCatV1.21B27,2013-09-06 12:38:00,
2013-09-06 05:43:00,54.7,29.6,29.87,SSE,153,0.0,0.0,38,0.00,,,0.00,WeatherCatV1.21B27,2013-09-06 12:43:00,
2013-09-06 05:48:00,54.6,30.1,29.87,SSE,152,0.0,0.0,39,0.00,,,0.00,WeatherCatV1.21B27,2013-09-06 12:48:00,
2013-09-06 05:58:00,55.2,30.7,29.87,SSE,153,0.0,0.0,39,0.00,,,0.00,WeatherCatV1.21B27,2013-09-06 12:58:00,
2013-09-06 06:03:00,55.5,37.2,29.88,SSE,153,0.0,0.0,50,0.00,,,0.00,WeatherCatV1.21B27,2013-09-06 13:03:00,
2013-09-06 06:08:00,55.7,41.6,29.87,SE,134,0.0,0.0,59,0.00,,,0.00,WeatherCatV1.21B27,2013-09-06 13:08:00,
2013-09-06 06:13:00,55.9,44.3,29.87,SE,134,0.0,0.0,65,0.00,,,0.00,WeatherCatV1.21B27,2013-09-06 13:13:00,
2013-09-06 06:18:00,56.1,45.7,29.87,SE,134,0.0,0.0,68,0.00,,,0.00,WeatherCatV1.21B27,2013-09-06 13:18:00,
2013-09-06 06:23:00,56.5,47.6,29.87,SE,134,0.0,0.0,72,0.00,,,0.00,WeatherCatV1.21B27,2013-09-06 13:23:00,
2013-09-06 06:28:00,56.7,48.9,29.87,SE,132,0.0,0.0,75,0.00,,,0.00,WeatherCatV1.21B27,2013-09-06 13:28:00,
2013-09-06 06:33:00,57.3,50.2,29.87,SE,132,0.0,0.0,77,0.00,,,0.00,WeatherCatV1.21B27,2013-09-06 13:33:00,
2013-09-06 06:38:00,57.9,51.4,29.87,SE,132,0.0,0.0,79,0.00,,,0.00,WeatherCatV1.21B27,2013-09-06 13:38:00,
2013-09-06 06:43:00,58.5,52.3,29.87,SE,132,0.0,0.0,80,0.00,,,0.00,WeatherCatV1.21B27,2013-09-06 13:43:00,
2013-09-06 06:48:00,58.4,52.2,29.87,SE,132,0.0,0.0,80,0.00,,,0.00,WeatherCatV1.21B27,2013-09-06 13:48:00,
2013-09-06 06:53:00,58.0,51.9,29.87,SE,132,0.0,0.0,80,0.00,,,0.00,WeatherCatV1.21B27,2013-09-06 13:53:00,
2013-09-06 06:58:00,57.8,51.7,29.88,SE,132,0.0,0.0,80,0.00,,,0.00,WeatherCatV1.21B27,2013-09-06 13:58:00,
2013-09-06 07:03:00,57.6,51.1,29.88,SE,132,0.0,0.0,79,0.00,,,0.00,WeatherCatV1.21B27,2013-09-06 14:03:00,
2013-09-06 07:08:00,57.9,51.8,29.88,SE,132,0.0,0.0,80,0.00,,,0.00,WeatherCatV1.21B27,2013-09-06 14:08:00,
2013-09-06 07:13:00,58.4,52.2,29.88,SE,132,0.0,0.0,80,0.00,,,0.00,WeatherCatV1.21B27,2013-09-06 14:13:00,
2013-09-06 07:18:00,59.3,52.8,29.88,SE,132,0.0,0.0,79,0.00,,,0.00,WeatherCatV1.21B27,2013-09-06 14:18:00,
2013-09-06 07:23:00,60.2,53.3,29.88,SE,132,0.0,0.0,78,0.00,,,0.00,WeatherCatV1.21B27,2013-09-06 14:23:00,
2013-09-06 07:28:00,61.0,53.7,29.88,SE,132,0.0,0.0,77,0.00,,,0.00,WeatherCatV1.21B27,2013-09-06 14:28:00,
2013-09-06 07:33:00,62.5,55.2,29.88,SE,132,0.0,0.0,77,0.00,,,0.00,WeatherCatV1.21B27,2013-09-06 14:33:00,
2013-09-06 07:38:00,64.6,57.2,29.88,SE,132,0.0,0.0,77,0.00,,,0.00,WeatherCatV1.21B27,2013-09-06 14:38:00,
2013-09-06 07:43:00,65.4,56.5,29.88,SE,132,0.0,0.0,73,0.00,,,0.00,WeatherCatV1.21B27,2013-09-06 14:43:00,
2013-09-06 07:48:00,65.2,55.5,29.89,SE,132,0.0,0.0,71,0.00,,,0.00,WeatherCatV1.21B27,2013-09-06 14:48:00,
2013-09-06 07:53:00,65.0,55.0,29.89,SE,132,0.0,0.0,70,0.00,,,0.00,WeatherCatV1.21B27,2013-09-06 14:53:00,
2013-09-06 07:58:00,65.0,54.6,29.89,SE,132,0.0,0.0,69,0.00,,,0.00,WeatherCatV1.21B27,2013-09-06 14:58:00,
2013-09-06 08:03:00,65.1,55.8,29.89,SE,132,0.0,0.0,72,0.00,,,0.00,WeatherCatV1.21B27,2013-09-06 15:03:00,
2013-09-06 08:08:00,65.8,55.7,29.89,SE,132,0.0,0.0,70,0.00,,,0.00,WeatherCatV1.21B27,2013-09-06 15:08:00,
2013-09-06 08:13:00,66.6,55.3,29.88,SE,132,0.0,0.0,67,0.00,,,0.00,WeatherCatV1.21B27,2013-09-06 15:13:00,
2013-09-06 08:18:00,66.8,55.1,29.89,SE,132,0.0,0.0,66,0.00,,,0.00,WeatherCatV1.21B27,2013-09-06 15:18:00,
2013-09-06 08:23:00,67.6,55.4,29.88,SE,132,0.0,0.0,65,0.00,,,0.00,WeatherCatV1.21B27,2013-09-06 15:23:00,
2013-09-06 08:28:00,68.7,55.6,29.88,SE,132,0.0,0.0,63,0.00,,,0.00,WeatherCatV1.21B27,2013-09-06 15:28:00,
2013-09-06 08:33:00,70.4,54.9,29.88,South,176,0.0,0.0,58,0.00,,,0.00,WeatherCatV1.21B27,2013-09-06 15:33:00,
2013-09-06 08:38:00,69.7,55.2,29.89,SSE,148,0.0,3.0,60,0.00,,,0.00,WeatherCatV1.21B27,2013-09-06 15:38:00,
2013-09-06 08:43:00,68.6,55.0,29.89,SSE,167,1.0,4.0,62,0.00,,,0.00,WeatherCatV1.21B27,2013-09-06 15:43:00,
2013-09-06 08:48:00,67.9,54.8,29.89,South,175,3.0,5.0,63,0.00,,,0.00,WeatherCatV1.21B27,2013-09-06 15:48:00,
2013-09-06 08:53:00,67.6,55.0,29.89,South,175,3.0,4.0,64,0.00,,,0.00,WeatherCatV1.21B27,2013-09-06 15:53:00,
2013-09-06 08:58:00,67.5,54.9,29.89,SSE,166,2.0,3.0,64,0.00,,,0.00,WeatherCatV1.21B27,2013-09-06 15:58:00,
2013-09-06 09:03:00,67.6,55.0,29.89,South,176,1.0,4.0,64,0.00,,,0.00,WeatherCatV1.21B27,2013-09-06 16:03:00,
2013-09-06 09:08:00,67.7,54.6,29.89,SSE,166,2.0,5.0,63,0.00,,,0.00,WeatherCatV1.21B27,2013-09-06 16:08:00,
2013-09-06 09:13:00,67.7,55.1,29.89,South,170,0.0,4.0,64,0.00,,,0.00,WeatherCatV1.21B27,2013-09-06 16:13:00,
2013-09-06 09:18:00,68.1,55.0,29.89,South,172,1.0,4.0,63,0.00,,,0.00,WeatherCatV1.21B27,2013-09-06 16:18:00,
2013-09-06 09:23:00,68.4,54.9,29.89,ESE,118,3.0,4.0,62,0.00,,,0.00,WeatherCatV1.21B27,2013-09-06 16:23:00,
2013-09-06 09:28:00,69.2,55.2,29.89,SE,127,1.0,3.0,61,0.00,,,0.00,WeatherCatV1.21B27,2013-09-06 16:28:00,
2013-09-06 09:33:00,69.9,55.4,29.89,SSE,161,0.0,2.0,60,0.00,,,0.00,WeatherCatV1.21B27,2013-09-06 16:33:00,
2013-09-06 09:38:00,70.7,55.2,29.88,SSE,153,0.0,3.0,58,0.00,,,0.00,WeatherCatV1.21B27,2013-09-06 16:38:00,
2013-09-06 09:43:00,71.4,54.9,29.88,South,182,0.0,1.0,56,0.00,,,0.00,WeatherCatV1.21B27,2013-09-06 16:43:00,
2013-09-06 09:48:00,72.5,55.4,29.89,SSE,165,1.0,1.0,55,0.00,,,0.00,WeatherCatV1.21B27,2013-09-06 16:48:00,
2013-09-06 09:53:00,73.2,56.5,29.88,SSW,195,1.0,3.0,56,0.00,,,0.00,WeatherCatV1.21B27,2013-09-06 16:53:00,
2013-09-06 09:58:00,73.4,56.7,29.88,South,173,1.0,3.0,56,0.00,,,0.00,WeatherCatV1.21B27,2013-09-06 16:58:00,
2013-09-06 10:03:00,73.7,56.5,29.88,WSW,254,2.0,3.0,55,0.00,,,0.00,WeatherCatV1.21B27,2013-09-06 17:03:00,
2013-09-06 10:08:00,74.2,56.5,29.88,South,178,1.0,3.0,54,0.00,,,0.00,WeatherCatV1.21B27,2013-09-06 17:08:00,
2013-09-06 10:13:00,74.8,56.5,29.88,WSW,250,4.0,4.0,53,0.00,,,0.00,WeatherCatV1.21B27,2013-09-06 17:13:00,
2013-09-06 10:18:00,75.5,55.5,29.88,SE,142,0.0,3.0,50,0.00,,,0.00,WeatherCatV1.21B27,2013-09-06 17:18:00,
2013-09-06 10:23:00,76.0,55.4,29.88,ESE,123,0.0,3.0,49,0.00,,,0.00,WeatherCatV1.21B27,2013-09-06 17:23:00,
2013-09-06 10:28:00,76.2,55.6,29.88,South,182,1.0,4.0,49,0.00,,,0.00,WeatherCatV1.21B27,2013-09-06 17:28:00,
2013-09-06 10:33:00,76.2,55.6,29.88,SE,136,0.0,3.0,49,0.00,,,0.00,WeatherCatV1.21B27,2013-09-06 17:33:00,
2013-09-06 10:38:00,77.3,56.1,29.88,SE,146,2.0,3.0,48,0.00,,,0.00,WeatherCatV1.21B27,2013-09-06 17:38:00,
2013-09-06 10:43:00,77.4,55.6,29.87,SE,134,0.0,3.0,47,0.00,,,0.00,WeatherCatV1.21B27,2013-09-06 17:43:00,
2013-09-06 10:48:00,77.8,55.9,29.87,SE,144,2.0,3.0,47,0.00,,,0.00,WeatherCatV1.21B27,2013-09-06 17:48:00,
2013-09-06 10:53:00,77.7,55.2,29.88,South,173,3.0,4.0,46,0.00,,,0.00,WeatherCatV1.21B27,2013-09-06 17:53:00,
2013-09-06 10:58:00,77.7,55.2,29.88,SSE,152,0.0,3.0,46,0.00,,,0.00,WeatherCatV1.21B27,2013-09-06 17:58:00,
2013-09-06 11:03:00,78.3,54.6,29.87,SSE,150,1.0,3.0,44,0.00,,,0.00,WeatherCatV1.21B27,2013-09-06 18:03:00,
2013-09-06 11:08:00,79.0,54.6,29.87,SE,137,2.0,3.0,43,0.00,,,0.00,WeatherCatV1.21B27,2013-09-06 18:08:00,
2013-09-06 11:13:00,79.7,54.5,29.87,SSE,167,1.0,1.0,42,0.00,,,0.00,WeatherCatV1.21B27,2013-09-06 18:13:00,
2013-09-06 11:18:00,80.3,53.8,29.87,SE,142,1.0,3.0,40,0.00,,,0.00,WeatherCatV1.21B27,2013-09-06 18:18:00,
2013-09-06 11:23:00,79.9,54.1,29.86,South,178,5.0,5.0,41,0.00,,,0.00,WeatherCatV1.21B27,2013-09-06 18:23:00,
2013-09-06 11:28:00,79.8,54.0,29.86,South,172,2.0,2.0,41,0.00,,,0.00,WeatherCatV1.21B27,2013-09-06 18:28:00,
2013-09-06 11:33:00,80.7,53.4,29.86,ESE,123,0.0,6.0,39,0.00,,,0.00,WeatherCatV1.21B27,2013-09-06 18:33:00,
2013-09-06 11:38:00,81.6,53.5,29.86,South,173,4.0,4.0,38,0.00,,,0.00,WeatherCatV1.21B27,2013-09-06 18:38:00,
2013-09-06 11:43:00,81.4,53.3,29.86,ESE,109,1.0,3.0,38,0.00,,,0.00,WeatherCatV1.21B27,2013-09-06 18:43:00,
2013-09-06 11:48:00,82.8,53.8,29.86,South,173,3.0,3.0,37,0.00,,,0.00,WeatherCatV1.21B27,2013-09-06 18:48:00,
2013-09-06 11:53:00,82.3,53.4,29.85,ESE,119,1.0,4.0,37,0.00,,,0.00,WeatherCatV1.21B27,2013-09-06 18:53:00,
2013-09-06 11:58:00,81.8,53.0,29.85,SW,225,3.0,3.0,37,0.00,,,0.00,WeatherCatV1.21B27,2013-09-06 18:58:00,
2013-09-06 12:03:00,82.1,54.0,29.85,SE,126,3.0,4.0,38,0.00,,,0.00,WeatherCatV1.21B27,2013-09-06 19:03:00,
2013-09-06 12:08:00,82.9,53.2,29.85,SE,136,1.0,5.0,36,0.00,,,0.00,WeatherCatV1.21B27,2013-09-06 19:08:00,
2013-09-06 12:13:00,84.0,53.4,29.85,South,189,0.0,1.0,35,0.00,,,0.00,WeatherCatV1.21B27,2013-09-06 19:13:00,
2013-09-06 12:23:00,85.9,53.4,29.84,South,186,2.0,4.0,33,0.00,,,0.00,WeatherCatV1.21B27,2013-09-06 19:23:00,
2013-09-06 12:33:00,84.3,51.2,29.85,SSW,192,0.0,4.0,32,0.00,,,0.00,WeatherCatV1.21B27,2013-09-06 19:33:00,
2013-09-06 12:43:00,84.9,50.9,29.84,SE,133,0.0,5.0,31,0.00,,,0.00,WeatherCatV1.21B27,2013-09-06 19:43:00,
2013-09-06 12:53:00,85.8,53.3,29.84,NE,44,4.0,7.0,33,0.00,,,0.00,WeatherCatV1.21B27,2013-09-06 19:53:00,
2013-09-06 12:58:00,85.3,55.3,29.83,ESE,105,0.0,6.0,36,0.00,,,0.00,WeatherCatV1.21B27,2013-09-06 19:58:00,
2013-09-06 13:08:00,84.9,55.7,29.83,NW,304,4.0,5.0,37,0.00,,,0.00,WeatherCatV1.21B27,2013-09-06 20:08:00,
2013-09-06 13:13:00,85.6,55.5,29.83,ENE,78,5.0,5.0,36,0.00,,,0.00,WeatherCatV1.21B27,2013-09-06 20:13:00,
2013-09-06 13:18:00,84.9,54.9,29.83,ESE,115,5.0,12.0,36,0.00,,,0.00,WeatherCatV1.21B27,2013-09-06 20:18:00,
2013-09-06 13:28:00,84.6,54.7,29.83,NE,44,6.0,11.0,36,0.00,,,0.00,WeatherCatV1.21B27,2013-09-06 20:28:00,
2013-09-06 13:33:00,85.2,54.4,29.83,East,100,5.0,8.0,35,0.00,,,0.00,WeatherCatV1.21B27,2013-09-06 20:33:00,
2013-09-06 13:38:00,84.1,54.2,29.82,ENE,62,4.0,11.0,36,0.00,,,0.00,WeatherCatV1.21B27,2013-09-06 20:38:00,
2013-09-06 13:43:00,83.9,54.0,29.82,ESE,117,4.0,10.0,36,0.00,,,0.00,WeatherCatV1.21B27,2013-09-06 20:43:00,
2013-09-06 13:48:00,83.8,54.0,29.82,ENE,76,4.0,5.0,36,0.00,,,0.00,WeatherCatV1.21B27,2013-09-06 20:48:00,
2013-09-06 13:53:00,85.0,55.0,29.82,SSE,148,5.0,5.0,36,0.00,,,0.00,WeatherCatV1.21B27,2013-09-06 20:53:00,
2013-09-06 13:58:00,85.0,54.2,29.82,ENE,61,6.0,9.0,35,0.00,,,0.00,WeatherCatV1.21B27,2013-09-06 20:58:00,
2013-09-06 14:03:00,85.2,54.4,29.82,NE,44,6.0,6.0,35,0.00,,,0.00,WeatherCatV1.21B27,2013-09-06 21:03:00,
2013-09-06 14:08:00,85.4,53.8,29.81,ENE,71,6.0,10.0,34,0.00,,,0.00,WeatherCatV1.21B27,2013-09-06 21:08:00,
2013-09-06 14:13:00,85.5,53.1,29.81,SE,142,3.0,9.0,33,0.00,,,0.00,WeatherCatV1.21B27,2013-09-06 21:13:00,
2013-09-06 14:18:00,85.9,54.2,29.81,ENE,65,4.0,6.0,34,0.00,,,0.00,WeatherCatV1.21B27,2013-09-06 21:18:00,
2013-09-06 14:23:00,87.1,54.5,29.81,South,175,2.0,2.0,33,0.00,,,0.00,WeatherCatV1.21B27,2013-09-06 21:23:00,
2013-09-06 14:28:00,87.1,54.5,29.80,SE,136,2.0,6.0,33,0.00,,,0.00,WeatherCatV1.21B27,2013-09-06 21:28:00,
2013-09-06 14:33:00,86.6,53.2,29.80,ESE,115,4.0,8.0,32,0.00,,,0.00,WeatherCatV1.21B27,2013-09-06 21:33:00,
2013-09-06 14:43:00,85.6,53.2,29.80,SE,133,0.0,5.0,33,0.00,,,0.00,WeatherCatV1.21B27,2013-09-06 21:43:00,
2013-09-06 14:48:00,86.0,52.7,29.80,East,100,4.0,5.0,32,0.00,,,0.00,WeatherCatV1.21B27,2013-09-06 21:48:00,
2013-09-06 14:53:00,87.1,53.6,29.80,ESE,105,3.0,7.0,32,0.00,,,0.00,WeatherCatV1.21B27,2013-09-06 21:53:00,
2013-09-06 14:58:00,86.8,52.5,29.80,SSE,153,2.0,5.0,31,0.00,,,0.00,WeatherCatV1.21B27,2013-09-06 21:58:00,
2013-09-06 15:03:00,86.6,52.3,29.79,East,95,3.0,7.0,31,0.00,,,0.00,WeatherCatV1.21B27,2013-09-06 22:03:00,
2013-09-06 15:08:00,86.2,52.8,29.79,South,190,1.0,3.0,32,0.00,,,0.00,WeatherCatV1.21B27,2013-09-06 22:08:00,
2013-09-06 15:13:00,86.5,52.2,29.79,ESE,111,8.0,9.0,31,0.00,,,0.00,WeatherCatV1.21B27,2013-09-06 22:13:00,
2013-09-06 15:18:00,85.9,51.7,29.79,East,82,14.0,14.0,31,0.00,,,0.00,WeatherCatV1.21B27,2013-09-06 22:18:00,
2013-09-06 15:23:00,85.5,49.6,29.79,ENE,76,6.0,11.0,29,0.00,,,0.00,WeatherCatV1.21B27,2013-09-06 22:23:00,
2013-09-06 15:33:00,84.1,48.4,29.79,East,93,9.0,9.0,29,0.00,,,0.00,WeatherCatV1.21B27,2013-09-06 22:33:00,
2013-09-06 15:43:00,83.5,48.8,29.79,ESE,113,3.0,7.0,30,0.00,,,0.00,WeatherCatV1.21B27,2013-09-06 22:43:00,
2013-09-06 15:48:00,83.6,48.9,29.79,NE,50,5.0,10.0,30,0.00,,,0.00,WeatherCatV1.21B27,2013-09-06 22:48:00,
2013-09-06 15:53:00,83.4,49.6,29.79,East,96,6.0,10.0,31,0.00,,,0.00,WeatherCatV1.21B27,2013-09-06 22:53:00,
2013-09-06 15:58:00,82.5,49.6,29.79,East,94,9.0,14.0,32,0.00,,,0.00,WeatherCatV1.21B27,2013-09-06 22:58:00,
2013-09-06 16:03:00,81.9,49.9,29.78,SE,129,5.0,12.0,33,0.00,,,0.00,WeatherCatV1.21B27,2013-09-06 23:03:00,
2013-09-06 16:08:00,81.5,50.4,29.79,East,98,9.0,14.0,34,0.00,,,0.00,WeatherCatV1.21B27,2013-09-06 23:08:00,
2013-09-06 16:13:00,81.4,51.1,29.78,East,80,8.0,12.0,35,0.00,,,0.00,WeatherCatV1.21B27,2013-09-06 23:13:00,
2013-09-06 16:18:00,81.9,50.8,29.78,ENE,69,2.0,10.0,34,0.00,,,0.00,WeatherCatV1.21B27,2013-09-06 23:18:00,
2013-09-06 16:23:00,82.6,52.1,29.78,ESE,116,1.0,7.0,35,0.00,,,0.00,WeatherCatV1.21B27,2013-09-06 23:23:00,
2013-09-06 16:28:00,83.4,51.2,29.78,NE,51,4.0,6.0,33,0.00,,,0.00,WeatherCatV1.21B27,2013-09-06 23:28:00,
2013-09-06 16:33:00,82.3,51.1,29.78,SSE,159,1.0,5.0,34,0.00,,,0.00,WeatherCatV1.21B27,2013-09-06 23:33:00,
2013-09-06 16:38:00,82.4,51.2,29.78,ESE,119,2.0,10.0,34,0.00,,,0.00,WeatherCatV1.21B27,2013-09-06 23:38:00,
2013-09-06 16:43:00,82.1,50.9,29.78,NE,43,5.0,6.0,34,0.00,,,0.00,WeatherCatV1.21B27,2013-09-06 23:43:00,
2013-09-06 16:48:00,81.5,50.4,29.78,ESE,119,2.0,9.0,34,0.00,,,0.00,WeatherCatV1.21B27,2013-09-06 23:48:00,
2013-09-06 16:53:00,81.4,50.3,29.78,ESE,113,1.0,6.0,34,0.00,,,0.00,WeatherCatV1.21B27,2013-09-06 23:53:00,
2013-09-06 16:58:00,81.0,50.0,29.78,WNW,283,5.0,11.0,34,0.00,,,0.00,WeatherCatV1.21B27,2013-09-06 23:58:00,
2013-09-06 17:03:00,81.0,50.7,29.77,ENE,58,3.0,5.0,35,0.00,,,0.00,WeatherCatV1.21B27,2013-09-07 00:03:00,
2013-09-06 17:08:00,81.2,50.1,29.77,East,88,3.0,6.0,34,0.00,,,0.00,WeatherCatV1.21B27,2013-09-07 00:08:00,
2013-09-06 17:13:00,80.4,50.2,29.77,South,169,1.0,10.0,35,0.00,,,0.00,WeatherCatV1.21B27,2013-09-07 00:13:00,
2013-09-06 17:18:00,80.1,50.7,29.78,SE,130,0.0,6.0,36,0.00,,,0.00,WeatherCatV1.21B27,2013-09-07 00:18:00,
2013-09-06 17:23:00,79.8,50.5,29.78,SE,141,0.0,4.0,36,0.00,,,0.00,WeatherCatV1.21B27,2013-09-07 00:23:00,
2013-09-06 17:28:00,79.2,50.7,29.78,SE,136,2.0,6.0,37,0.00,,,0.00,WeatherCatV1.21B27,2013-09-07 00:28:00,
2013-09-06 17:33:00,79.1,50.6,29.78,SSE,165,1.0,5.0,37,0.00,,,0.00,WeatherCatV1.21B27,2013-09-07 00:33:00,
2013-09-06 17:38:00,78.6,50.1,29.77,SE,129,3.0,4.0,37,0.00,,,0.00,WeatherCatV1.21B27,2013-09-07 00:38:00,
2013-09-06 17:43:00,78.2,51.2,29.78,SE,136,1.0,3.0,39,0.00,,,0.00,WeatherCatV1.21B27,2013-09-07 00:43:00,
2013-09-06 17:48:00,77.8,50.1,29.77,SE,145,4.0,6.0,38,0.00,,,0.00,WeatherCatV1.21B27,2013-09-07 00:48:00,
2013-09-06 17:53:00,77.5,50.6,29.77,ESE,118,1.0,4.0,39,0.00,,,0.00,WeatherCatV1.21B27,2013-09-07 00:53:00,
2013-09-06 17:58:00,77.3,49.7,29.77,SE,136,5.0,7.0,38,0.00,,,0.00,WeatherCatV1.21B27,2013-09-07 00:58:00,
2013-09-06 18:03:00,77.1,49.5,29.77,East,94,3.0,3.0,38,0.00,,,0.00,WeatherCatV1.21B27,2013-09-07 01:03:00,
2013-09-06 18:08:00,76.8,49.2,29.77,East,89,4.0,7.0,38,0.00,,,0.00,WeatherCatV1.21B27,2013-09-07 01:08:00,
2013-09-06 18:13:00,76.3,48.8,29.77,ENE,57,3.0,6.0,38,0.00,,,0.00,WeatherCatV1.21B27,2013-09-07 01:13:00,
2013-09-06 18:18:00,75.9,49.2,29.77,East,97,3.0,10.0,39,0.00,,,0.00,WeatherCatV1.21B27,2013-09-07 01:18:00,
2013-09-06 18:23:00,75.7,48.3,29.77,ESE,115,2.0,7.0,38,0.00,,,0.00,WeatherCatV1.21B27,2013-09-07 01:23:00,
2013-09-06 18:28:00,75.3,48.6,29.77,SE,146,1.0,12.0,39,0.00,,,0.00,WeatherCatV1.21B27,2013-09-07 01:28:00,
2013-09-06 18:33:00,74.8,48.8,29.77,SE,130,0.0,5.0,40,0.00,,,0.00,WeatherCatV1.21B27,2013-09-07 01:33:00,
2013-09-06 18:38:00,74.8,48.2,29.77,SSW,198,2.0,6.0,39,0.00,,,0.00,WeatherCatV1.21B27,2013-09-07 01:38:00,
2013-09-06 18:43:00,74.1,48.2,29.77,East,90,4.0,4.0,40,0.00,,,0.00,WeatherCatV1.21B27,2013-09-07 01:43:00,
2013-09-06 18:48:00,73.3,46.8,29.77,ESE,118,7.0,10.0,39,0.00,,,0.00,WeatherCatV1.21B27,2013-09-07 01:48:00,
2013-09-06 18:53:00,72.8,47.1,29.77,SE,125,4.0,8.0,40,0.00,,,0.00,WeatherCatV1.21B27,2013-09-07 01:53:00,
2013-09-06 18:58:00,72.5,47.5,29.76,East,97,2.0,9.0,41,0.00,,,0.00,WeatherCatV1.21B27,2013-09-07 01:58:00,
2013-09-06 19:03:00,72.2,47.8,29.76,NE,49,5.0,7.0,42,0.00,,,0.00,WeatherCatV1.21B27,2013-09-07 02:03:00,
2013-09-06 19:08:00,71.9,48.2,29.76,SE,143,0.0,4.0,43,0.00,,,0.00,WeatherCatV1.21B27,2013-09-07 02:08:00,
2013-09-06 19:13:00,71.4,48.3,29.76,ESE,113,1.0,3.0,44,0.00,,,0.00,WeatherCatV1.21B27,2013-09-07 02:13:00,
2013-09-06 19:18:00,71.2,48.8,29.76,East,84,5.0,7.0,45,0.00,,,0.00,WeatherCatV1.21B27,2013-09-07 02:18:00,
2013-09-06 19:23:00,70.8,49.0,29.76,South,176,0.0,3.0,46,0.00,,,0.00,WeatherCatV1.21B27,2013-09-07 02:23:00,
2013-09-06 19:28:00,70.1,48.9,29.76,South,191,2.0,2.0,47,0.00,,,0.00,WeatherCatV1.21B27,2013-09-07 02:28:00,
2013-09-06 19:33:00,69.7,49.1,29.76,SSE,158,0.0,3.0,48,0.00,,,0.00,WeatherCatV1.21B27,2013-09-07 02:33:00,
2013-09-06 19:38:00,69.3,49.3,29.76,WSW,238,0.0,0.0,49,0.00,,,0.00,WeatherCatV1.21B27,2013-09-07 02:38:00,
2013-09-06 19:43:00,68.8,49.4,29.76,South,188,0.0,0.0,50,0.00,,,0.00,WeatherCatV1.21B27,2013-09-07 02:43:00,
2013-09-06 19:48:00,68.3,49.5,29.76,SSE,157,0.0,0.0,51,0.00,,,0.00,WeatherCatV1.21B27,2013-09-07 02:48:00,
2013-09-06 19:53:00,67.9,48.6,29.76,SSE,149,0.0,3.0,50,0.00,,,0.00,WeatherCatV1.21B27,2013-09-07 02:53:00,
2013-09-06 19:58:00,67.7,48.9,29.76,SSE,149,0.0,0.0,51,0.00,,,0.00,WeatherCatV1.21B27,2013-09-07 02:58:00,
2013-09-06 20:03:00,67.7,47.8,29.76,SE,126,1.0,1.0,49,0.00,,,0.00,WeatherCatV1.21B27,2013-09-07 03:03:00,
2013-09-06 20:08:00,68.0,48.1,29.76,SE,126,0.0,0.0,49,0.00,,,0.00,WeatherCatV1.21B27,2013-09-07 03:08:00,
2013-09-06 20:13:00,68.4,47.9,29.76,ESE,123,0.0,0.0,48,0.00,,,0.00,WeatherCatV1.21B27,2013-09-07 03:13:00,
2013-09-06 20:18:00,68.5,47.5,29.76,SE,127,0.0,0.0,47,0.00,,,0.00,WeatherCatV1.21B27,2013-09-07 03:18:00,
2013-09-06 20:23:00,68.4,47.4,29.77,SE,126,0.0,0.0,47,0.00,,,0.00,WeatherCatV1.21B27,2013-09-07 03:23:00,
2013-09-06 20:28:00,68.1,47.7,29.77,SE,126,0.0,0.0,48,0.00,,,0.00,WeatherCatV1.21B27,2013-09-07 03:28:00,
2013-09-06 20:33:00,67.9,47.5,29.77,SE,126,0.0,0.0,48,0.00,,,0.00,WeatherCatV1.21B27,2013-09-07 03:33:00,
2013-09-06 20:38:00,67.9,47.5,29.77,SE,127,0.0,0.0,48,0.00,,,0.00,WeatherCatV1.21B27,2013-09-07 03:38:00,
2013-09-06 20:43:00,67.9,47.5,29.77,SSE,157,0.0,0.0,48,0.00,,,0.00,WeatherCatV1.21B27,2013-09-07 03:43:00,
2013-09-06 20:48:00,68.3,47.3,29.77,SE,140,0.0,4.0,47,0.00,,,0.00,WeatherCatV1.21B27,2013-09-07 03:48:00,
2013-09-06 20:53:00,68.5,46.9,29.77,SE,140,0.0,0.0,46,0.00,,,0.00,WeatherCatV1.21B27,2013-09-07 03:53:00,
2013-09-06 20:58:00,68.6,47.0,29.77,SE,140,0.0,0.0,46,0.00,,,0.00,WeatherCatV1.21B27,2013-09-07 03:58:00,
2013-09-06 21:03:00,68.8,46.6,29.76,SE,140,0.0,0.0,45,0.00,,,0.00,WeatherCatV1.21B27,2013-09-07 04:03:00,
2013-09-06 21:08:00,69.3,47.0,29.77,SE,146,0.0,1.0,45,0.00,,,0.00,WeatherCatV1.21B27,2013-09-07 04:08:00,
2013-09-06 21:13:00,69.5,47.2,29.76,South,169,0.0,0.0,45,0.00,,,0.00,WeatherCatV1.21B27,2013-09-07 04:13:00,
2013-09-06 21:18:00,69.3,47.0,29.76,South,169,0.0,0.0,45,0.00,,,0.00,WeatherCatV1.21B27,2013-09-07 04:18:00,
2013-09-06 21:23:00,69.0,47.3,29.76,South,169,0.0,0.0,46,0.00,,,0.00,WeatherCatV1.21B27,2013-09-07 04:23:00,
2013-09-06 21:28:00,68.9,47.3,29.76,South,169,0.0,0.0,46,0.00,,,0.00,WeatherCatV1.21B27,2013-09-07 04:28:00,
2013-09-06 21:33:00,68.9,47.3,29.77,SSE,166,0.0,0.0,46,0.00,,,0.00,WeatherCatV1.21B27,2013-09-07 04:33:00,
2013-09-06 21:38:00,68.9,46.7,29.76,SSE,165,0.0,0.0,45,0.00,,,0.00,WeatherCatV1.21B27,2013-09-07 04:38:00,
2013-09-06 21:43:00,69.1,46.8,29.77,SSE,166,0.0,0.0,45,0.00,,,0.00,WeatherCatV1.21B27,2013-09-07 04:43:00,
2013-09-06 21:53:00,69.5,46.0,29.76,SSE,166,0.0,0.0,43,0.00,,,0.00,WeatherCatV1.21B27,2013-09-07 04:53:00,
2013-09-06 21:58:00,69.5,46.0,29.76,SSE,166,0.0,0.0,43,0.00,,,0.00,WeatherCatV1.21B27,2013-09-07 04:58:00,
2013-09-06 22:03:00,69.4,45.3,29.76,SSE,166,0.0,0.0,42,0.00,,,0.00,WeatherCatV1.21B27,2013-09-07 05:03:00,
2013-09-06 22:08:00,69.6,45.5,29.75,SSE,166,0.0,0.0,42,0.00,,,0.00,WeatherCatV1.21B27,2013-09-07 05:08:00,
2013-09-06 22:13:00,69.6,44.8,29.75,SSE,166,0.0,0.0,41,0.00,,,0.00,WeatherCatV1.21B27,2013-09-07 05:13:00,
2013-09-06 22:18:00,70.2,45.4,29.75,SSE,163,0.0,0.0,41,0.00,,,0.00,WeatherCatV1.21B27,2013-09-07 05:18:00,
2013-09-06 22:23:00,70.5,46.3,29.76,SE,136,0.0,0.0,42,0.00,,,0.00,WeatherCatV1.21B27,2013-09-07 05:23:00,
2013-09-06 22:28:00,70.3,46.1,29.76,SSE,154,0.0,0.0,42,0.00,,,0.00,WeatherCatV1.21B27,2013-09-07 05:28:00,
2013-09-06 22:33:00,70.0,46.5,29.75,SSE,153,0.0,0.0,43,0.00,,,0.00,WeatherCatV1.21B27,2013-09-07 05:33:00,
2013-09-06 22:38:00,69.7,46.2,29.75,SSE,153,0.0,0.0,43,0.00,,,0.00,WeatherCatV1.21B27,2013-09-07 05:38:00,
2013-09-06 22:43:00,69.6,45.5,29.75,SSE,154,0.0,0.0,42,0.00,,,0.00,WeatherCatV1.21B27,2013-09-07 05:43:00,
2013-09-06 22:48:00,69.4,45.3,29.75,SSE,154,0.0,0.0,42,0.00,,,0.00,WeatherCatV1.21B27,2013-09-07 05:48:00,
2013-09-06 22:53:00,69.0,44.9,29.76,SSE,154,0.0,0.0,42,0.00,,,0.00,WeatherCatV1.21B27,2013-09-07 05:53:00,
2013-09-06 22:58:00,68.6,45.2,29.75,SSE,154,0.0,0.0,43,0.00,,,0.00,WeatherCatV1.21B27,2013-09-07 05:58:00,
2013-09-06 23:03:00,69.7,48.0,29.75,SSE,154,0.0,0.0,46,0.00,,,0.00,WeatherCatV1.21B27,2013-09-07 06:03:00,
2013-09-06 23:08:00,71.8,48.1,29.75,SSE,150,0.0,0.0,43,0.00,,,0.00,WeatherCatV1.21B27,2013-09-07 06:08:00,
2013-09-06 23:13:00,73.0,47.9,29.75,SSE,150,0.0,0.0,41,0.00,,,0.00,WeatherCatV1.21B27,2013-09-07 06:13:00,
2013-09-06 23:18:00,73.8,48.0,29.75,SE,140,0.0,0.0,40,0.00,,,0.00,WeatherCatV1.21B27,2013-09-07 06:18:00,
2013-09-06 23:23:00,74.0,46.1,29.75,SE,140,0.0,0.0,37,0.00,,,0.00,WeatherCatV1.21B27,2013-09-07 06:23:00,
2013-09-06 23:28:00,73.1,46.7,29.75,SE,140,0.0,0.0,39,0.00,,,0.00,WeatherCatV1.21B27,2013-09-07 06:28:00,
2013-09-06 23:33:00,72.4,46.7,29.75,SE,140,0.0,0.0,40,0.00,,,0.00,WeatherCatV1.21B27,2013-09-07 06:33:00,
2013-09-06 23:38:00,71.6,46.6,29.75,SE,140,0.0,0.0,41,0.00,,,0.00,WeatherCatV1.21B27,2013-09-07 06:38:00,
2013-09-06 23:43:00,71.3,46.4,29.75,SE,140,0.0,0.0,41,0.00,,,0.00,WeatherCatV1.21B27,2013-09-07 06:43:00,
2013-09-06 23:48:00,70.8,46.6,29.75,SE,140,0.0,0.0,42,0.00,,,0.00,WeatherCatV1.21B27,2013-09-07 06:48:00,
2013-09-06 23:53:00,70.3,46.7,29.75,SE,140,0.0,0.0,43,0.00,,,0.00,WeatherCatV1.21B27,2013-09-07 06:53:00,
2013-09-06 23:58:00,70.1,47.2,29.75,SE,140,0.0,0.0,44,0.00,,,0.00,WeatherCatV1.21B27,2013-09-07 06:58:00,